Regional Weather Roundup
Issued by NWS

Home | Current Version | Previous Version | Graphics & Text | Print | Product List | Glossary On
Versions: 1 2 3 4 5 6 7 8 9 10 11 12 13 14 15 16 17 18 19 20 21 22 23 24 25 26 27 28 29 30 31 32 33 34 35 36 37 38 39 40 41 42 43 44 45 46 47 48 49 50
067
ASUS43 KMPX 240601
RWRMN
WEATHER ROUNDUP FOR MINNESOTA
NATIONAL WEATHER SERVICE TWIN CITIES/CHANHASSEN MN
100 AM CDT FRI MAR 24 2017


NOTE: "FAIR" INDICATES FEW OR NO CLOUDS BELOW 12,000 FEET WITH NO
SIGNIFICANT WEATHER AND/OR OBSTRUCTIONS TO VISIBILITY. N/A MEANS
CURRENT SKY AND/OR WEATHER CONDITIONS ARE NOT AVAILABLE.

MNZ060>063-068>070-240700-
   Twin Cities Metro

CITY           SKY/WX    TMP DP  RH WIND       PRES   REMARKS
TWIN CITIES    LGT RAIN  39  36  89 E5        29.88R FOG
6HR MIN TEMP:  38; 6HR MAX TEMP:  39; 6HR PCP:  0.15;

ST PAUL        LGT RAIN  39  38  96 CALM      29.89R FOG
CRYSTAL        LGT RAIN  38  36  92 SE3       29.87R FOG
BLAINE         DRIZZLE   39  39 100 CALM      29.88R
LAKEVILLE      CLOUDY    36  36 100 NE6       29.86R FOG
EDEN PRAIRIE   LGT RAIN  39  37  92 E6        29.86R FOG
6HR MIN TEMP:  38; 6HR MAX TEMP:  40; 6HR PCP:  0.14;

SOUTH ST PAUL  CLOUDY    39  38  96 CALM      29.87R
LAKE ELMO      DRIZZLE   37  37 100 CALM      29.89R
$$
MNZ001>005-007-008-013>017-022>024-027-028-240700-
   Northwest Minnesota

CITY           SKY/WX    TMP DP  RH WIND       PRES   REMARKS
BEMIDJI        CLOUDY    32  32 100 CALM      29.90R FOG
HALLOCK        CLOUDY    34  32  93 N10       29.92S WCI  26
ROSEAU         PTCLDY    36  30  80 NW5       29.90S
WARROAD        CLOUDY    36  30  80 W6        29.90S
THIEF RVR FALL CLOUDY    32  30  93 W3        29.91R FOG
CROOKSTON      CLOUDY    32  32 100 S9        29.93R FOG     WCI  24
FOSSTON        CLOUDY    30  30 100 CALM      29.90F FOG
DETROIT LAKES  CLOUDY    34  34 100 NE5       29.87F FOG     WCI  30
MOORHEAD       CLOUDY    34  32  93 CALM      29.89F FOG
PARK RAPIDS    CLOUDY    34  30  85 N5        29.88R WCI  30
MAHNOMEN       CLOUDY    32  32  99 E6        29.87F FOG     WCI  27
$$
MNZ006-009>011-018-025>026-240700-
   North Central Minnesota

CITY           SKY/WX    TMP DP  RH WIND       PRES   REMARKS
BAUDETTE       CLOUDY    33  32  96 CALM      29.88S
FLAG ISLAND    CLOUDY    36  30  80 N10       29.88F
INTL FALLS     CLOUDY    33  32  96 CALM      29.89S
6HR MIN TEMP:  33; 6HR MAX TEMP:  34;

WASKISH        CLOUDY    34  34 100 CALM      29.92R
BIG FORK       CLOUDY    34  32  93 CALM      29.91R FOG
LONGVILLE      CLOUDY    32  32 100 CALM      29.89S FOG
GRAND RAPIDS   MIX PCPN N/A N/A N/A N3        29.91R VSB 3/4
CRANE LAKE     CLOUDY    30  30 100 CALM      29.93R FOG
ORR            CLOUDY    32  30  93 CALM      29.88S FOG
COOK           CLOUDY    32  32 100 CALM      29.90F FOG
WALKER         CLOUDY    32  32  99 CALM      29.90R FOG
$$
MNZ012-019>021-037-240700-
   Northeast Minnesota

CITY           SKY/WX    TMP DP  RH WIND       PRES   REMARKS
DULUTH         LGT RAIN  33  32  96 CALM      29.88S FOG
6HR MIN TEMP:  32; 6HR MAX TEMP:  33; 6HR PCP:  0.14;

ELY            CLOUDY    32  32 100 CALM      29.89R FOG
HIBBING        CLOUDY    32  31  96 CALM      29.89R FOG
EVELETH        CLOUDY    32  31  96 CALM      29.91R FOG
DULUTH HARBOR  MIX PCPN  34  32  93 CALM      29.93R
TWO HARBORS    DRIZZLE   36  30  80 CALM      29.88F
SILVER BAY     LGT RAIN  34  34 100 CALM      29.89R
GRAND MARAIS     N/A     33  32  96 CALM      29.92S
G MARAIS ARPRT LGT SNOW  28  25  86 CALM      29.87R
$$
MNZ029>031-032-039>041-046>048-054>057-064-240700-
   West Central Minnesota

CITY           SKY/WX    TMP DP  RH WIND       PRES   REMARKS
FERGUS FALLS   CLOUDY    34  34 100 E6        29.91S FOG     WCI  29
WHEATON        CLOUDY    34  34 100 N7        29.88S FOG     WCI  28
MORRIS         CLOUDY    36  34  93 E6        29.83S FOG
ALEXANDRIA     CLOUDY    34  33  96 NE6       29.86S FOG     WCI  29
ELBOW LAKE     CLOUDY    33  33 100 CALM      29.86F FOG
WADENA         DRIZZLE   32  32 100 N5        29.87S WCI  27
GLENWOOD       CLOUDY    34  34 100 NE5       29.84R FOG     WCI  30
APPLETON       CLOUDY    36  36 100 CALM      29.84R FOG
BENSON         CLOUDY    37  34  87 SE5       29.85R FOG
ORTONVILLE     CLOUDY    36  34  93 NE5       29.84R FOG
MADISON        CLOUDY    37  37 100 E6        29.83S FOG
WILLMAR        CLOUDY    36  36 100 E7        29.83F FOG
$$
MNZ033>034-036-042>043-049>051-058-059-240700-
   Central Minnesota

CITY           SKY/WX    TMP DP  RH WIND       PRES   REMARKS
ST CLOUD       CLOUDY    35  35 100 E6        29.85F FOG     WCI  30
6HR MIN TEMP:  35; 6HR MAX TEMP:  35; 6HR PCP:  0.08;

SAUK CENTRE    CLOUDY    33  33  99 NE3       29.85R FOG
PAYNESVILLE      N/A     35  35 100 E6        29.83F FOG     WCI  30
AITKIN         CLOUDY    36  30  80 CALM      29.87S FOG
PINE RIVER     MIX PCPN  32  32 100 N5        29.91F WCI  27
BRAINERD       CLOUDY    33  32  96 NE6       29.87F FOG     WCI  28
STAPLES        CLOUDY    32  32 100 CALM      29.88S FOG
LONG PRAIRIE   CLOUDY    32  32 100 NW3       29.87R FOG
LITTLE FALLS     N/A    N/A N/A N/A CALM        N/A
LITCHFIELD     DRZL/FOG  37  36  93 NE6       29.84F VSB 1
BUFFALO        DRIZZLE   36  35  95 CALM      29.87S
MAPLE LAKE     DRIZZLE   37  37  99 CALM      29.87R
HUTCHINSON     LGT RAIN  38  38 100 NE6       29.85S
$$
MNZ037-044-045-052-053-240700-
   East Central Minnesota

CITY           SKY/WX    TMP DP  RH WIND       PRES   REMARKS
PRINCETON      CLOUDY    37  36  93 SE5       29.88R FOG
MORA           CLOUDY    32  32 100 CALM      29.90R FOG
CAMBRIDGE      DRIZZLE   37  34  87 CALM      29.87R
RUSH CITY      CLOUDY    34  33  96 CALM      29.88S FOG
MOOSE LAKE     CLOUDY    32  32 100 CALM      29.87R FOG
HINCKLEY       CLOUDY    34  34 100 E3        29.88R FOG
CLOQUET        MIX PCPN  32  30  93 CALM      29.89R
MCGREGOR       CLOUDY    32  32 100 CALM      29.88S
$$
MNZ071>073-080-081-089-090-097-098-240700-
   Southwest Minnesota

CITY           SKY/WX    TMP DP  RH WIND       PRES   REMARKS
MONTEVIDEO     CLOUDY    36  36 100 E6        29.84S FOG
GRANITE FALLS  CLOUDY    37  37  97 NE6       29.83F FOG
CANBY          CLOUDY    36  36  99 CALM      29.84R FOG
MARSHALL       CLOUDY    36  36 100 N8        29.81F FOG
REDWOOD FALLS  CLOUDY    39  36  89 E7        29.81S FOG
OLIVIA         CLOUDY    36  36 100 E5        29.83F FOG
PIPESTONE      LGT RAIN  39  34  81 NE7       29.77R
WINDOM         TSTM      39  36  87 N9        29.81R
WORTHINGTON    LGT RAIN  39  36  89 NE13      29.77R
JACKSON        RAIN      37  36  93 CALM      29.83R
TRACY          CLOUDY    38  37  97 NE6       29.79S FOG
SLAYTON        LGT RAIN  36  35  96 NE7       29.80R
$$
MNZ065>067-074>077-082>085-091>093-240700-
   South Central Minnesota

CITY           SKY/WX    TMP DP  RH WIND       PRES   REMARKS
MANKATO        LGT RAIN  40  37  89 NE12      29.82S
NEW ULM        CLOUDY    37  37 100 E9        29.81F FOG
ST JAMES       CLOUDY    39  37  93 CALM      29.83R THUNDER
FAIRMONT       TSTM      41  38  89 VRB5      29.81R
GLENCOE        CLOUDY    38  39 100 E5        29.84S FOG
FARIBAULT      CLOUDY    39  37  93 N5        29.86R
OWATONNA       CLOUDY    41  37  87 N6        29.83R
WASECA         CLOUDY    39  36  87 N6        29.84R
ALBERT LEA     CLOUDY    39  37  93 SE16G23   29.77F
$$
MNZ078>079-086>088-094>096-240700-
   Southeast Minnesota

CITY           SKY/WX    TMP DP  RH WIND       PRES   REMARKS
ROCHESTER      CLOUDY    39  37  92 S16       29.80F
6HR MIN TEMP:  36; 6HR MAX TEMP:  40;

RED WING       CLOUDY    39  34  81 NE3       29.85S
STANTON        CLOUDY    39  36  87 NE7       29.84R
DODGE CENTER   CLOUDY    39  37  93 SE9       29.80S
WINONA         CLOUDY    39  34  81 SE5       29.85F
AUSTIN         CLOUDY    41  37  87 SE10G16   29.78F
PRESTON        CLOUDY    38  35  89 SE9       29.81F
$$
ABBREVIATIONS USED IN REMARKS
   TC - TEMPERATURES IN CELSIUS
  WCI - WIND CHILL INDEX
   HX - HEAT INDEX
  VSB - VISIBILITY
$$




USA.gov is the U.S. government's official web portal to all federal, state and local government web resources and services.